Retour au catalogue

THOR AGENA B DEB

ActifUNKNOWN
NORAD 2153·DEBRIS·🇺🇸 United States

Lancé Nov 29, 1965 depuis Vandenberg Space Force Base

Loading…

Prochains Passages (prochaines 24 heures)

TLE

FraisSource: Space-Track

Époque: Sep 14, 2026, 05:22 UTC

1 02153U 65098J   26257.22423889  .00001147  00000-0  36169-3 0  9990
2 02153  79.7466 355.6309 1280463 224.2962 153.1996 12.39405651698063

Suivez THOR AGENA B DEB en temps réel avec AllMySat

Download on the App Store